Location: Berua Church
(35.0423°N, 88.5987°W)
Time: 05:29:10
(UTC+00:00)

SL-4 R/B - Pass Details

Date: 08 December 2019
Orbit: 428 x 667 km, 51.6° (Epoch: 26 January)

Event Time Altitude Azimuth Distance (km) Brightness Sun altitude
Rises 23:40:47 0° 292° (WNW) 2,514 6.2 -11.8°
Drops below altitude 10° 23:45:05 10° 340° (NNW) 1,720 4.6 -12.6°
Maximum altitude 23:45:25 10° 345° (NNW) 1,721 4.5 -12.6°
Enters shadow 23:47:50 - 16° (NNE) 2,023 4.6 -13.1°
